[[{"header":{"parameterUnit":"m.s-1","parameterCategory":1,"la1":30.2991,"la2":30.254,"lo1":-89.0895,"lo2":-89.0444,"dy":0.0017,"dx":0.0017,"nx":28,"ny":28,"refTime":"2025-01-06T09:00:00:Z","depth":0,"parameterNumber":2,"parameterNumberName":"U-component_of_WINDS"},"data":[0,0,0,0,0,0,0,0,0,0,0,0,0,0,0,0,0,0,0,0,0,0,0,0,0,0,0,0,0,0,0,0,0,0,0,0,0,0,0,0,0,0,0,0,0,0,0,0,0,0,0,0,0,0,0,0,0,0,-0.1155,-0.1156,0,-0.1254,-0.1255,-0.1256,-0.1265,-0.1263,-0.1262,-0.1261,-0.1366,-0.1369,-0.1373,0,0,0,0,0,0,0,0,0,0,0,0,0,-0.0976,-0.0979,-0.1155,-0.1157,-0.1158,-0.1254,-0.1255,-0.1257,-0.1265,-0.1263,-0.1262,-0.1261,-0.1365,-0.1369,-0.1374,0,0,0,0,0,0,0,0,0,0,0,0,0,-0.1062,-0.098,-0.1155,-0.1173,-0.1176,-0.1254,-0.1255,-0.1257,-0.1265,-0.1263,-0.1262,-0.126,-0.1363,-0.1369,-0.1374,-0.1441,0,0,-0.1391,-0.1394,0,0,0,0,0,0,0,0,-0.1057,-0.1069,-0.1169,-0.1172,-0.1175,-0.1245,-0.123,-0.1319,-0.1265,-0.1231,-0.1261,-0.1259,-0.1327,-0.1336,-0.1358,-0.1446,-0.1451,-0.1392,-0.1395,-0.1398,-0.1399,0,0,0,0,0,0,0,-0.1051,-0.1065,-0.1195,-0.1171,-0.1174,-0.1177,-0.1188,-0.1247,-0.1287,-0.1234,-0.1235,-0.1246,-0.1329,-0.1352,-0.136,-0.1452,-0.1392,-0.1397,-0.14,-0.1403,-0.1601,-0.1602,0,0,0,0,0,0,-0.1042,-0.106,-0.1191,-0.1197,-0.1111,-0.1182,-0.1194,-0.1225,-0.1287,-0.1294,-0.1248,-0.1246,-0.1343,-0.1354,-0.1364,-0.1447,-0.1398,-0.1403,-0.1406,-0.1599,-0.1601,-0.1603,0,0,0,0,0,0,-0.1038,-0.1053,-0.1187,-0.1129,-0.1146,-0.1187,-0.1221,-0.1227,-0.1251,-0.1297,-0.1304,-0.1265,-0.1343,-0.1356,-0.1422,-0.1451,-0.1406,-0.1411,-0.1597,-0.1599,-0.1602,-0.1614,0,0,0,0,0,0,-0.1032,-0.1052,-0.1077,-0.1129,-0.1149,-0.1243,-0.1223,-0.123,-0.1261,-0.126,-0.1315,-0.1322,-0.1342,-0.1413,-0.1427,-0.1458,-0.1415,-0.1594,-0.1598,-0.1601,-0.1611,-0.1617,-0.1622,0,0,0,0,0,-0.1026,-0.1078,-0.1079,-0.1095,-0.1182,-0.1245,-0.1256,-0.1278,-0.1263,-0.1289,-0.1318,-0.132,-0.1445,-0.142,-0.1436,-0.1469,-0.1593,-0.1597,-0.1601,-0.1609,-0.1616,-0.1622,0,0,0,0,0,0,-0.103,-0.1085,-0.1087,-0.1156,-0.1196,-0.1246,-0.128,-0.1284,-0.1329,-0.1327,-0.1352,-0.1365,-0.143,-0.1455,-0.1427,-0.1537,-0.1517,-0.1525,-0.1518,-0.1525,-0.153,-0.1523,-0.142,0,0,0,0,0,-0.1039,-0.1084,-0.113,-0.1187,-0.1206,-0.124,-0.1268,-0.1281,-0.1323,-0.134,-0.1374,-0.1415,-0.1464,-0.1495,-0.1543,-0.1614,-0.1627,-0.1644,-0.165,-0.1654,-0.1661,-0.1701,-0.1709,-0.1617,-0.1617,-0.1617,0,0,-0.1058,-0.1093,-0.1121,-0.1189,-0.1221,-0.1268,-0.1254,-0.1305,-0.134,-0.1348,-0.1412,-0.1438,-0.1486,-0.1555,-0.1587,-0.1579,-0.1688,-0.1659,-0.1662,-0.1667,-0.1706,-0.1715,-0.1722,-0.162,-0.1619,-0.1619,0,0,-0.1117,-0.1148,-0.1199,-0.1231,-0.1279,-0.13,-0.1312,-0.1361,-0.1379,-0.1443,-0.1449,-0.1492,-0.1575,-0.1609,-0.1637,-0.1707,-0.1711,-0.1721,-0.175,-0.1788,-0.1796,-0.1802,-0.1828,-0.1837,-0.1728,-0.1728,-0.1728,0,-0.1136,-0.1206,-0.1225,-0.1276,-0.1306,-0.1312,-0.1365,-0.1395,-0.1456,-0.1477,-0.1466,-0.1569,-0.1602,-0.1679,-0.1696,-0.1718,-0.1733,-0.1717,-0.1793,-0.18,-0.1806,-0.1831,-0.1841,-0.1729,-0.1729,-0.1729,-0.1728,0,-0.1227,-0.1276,-0.1311,-0.1369,-0.1402,-0.1453,-0.1481,-0.1512,-0.1521,-0.1544,-0.1609,-0.1648,-0.1703,-0.1722,-0.1732,-0.1801,-0.1794,-0.1787,-0.1769,-0.1816,-0.184,-0.1849,-0.173,-0.173,-0.173,-0.1729,0,0,-0.1294,-0.136,-0.1373,-0.1399,-0.1451,-0.1489,-0.154,-0.1593,-0.162,-0.1661,-0.1706,-0.1774,-0.1768,-0.18,-0.1814,-0.1847,-0.1901,-0.1837,-0.1838,-0.1848,-0.1979,-0.1985,-0.1996,-0.1902,-0.1904,-0.1906,-0.1976,0,-0.1361,-0.1451,-0.1469,-0.1548,-0.1594,-0.16,-0.1644,-0.1681,-0.1703,-0.1746,-0.177,-0.1819,-0.1806,-0.1826,-0.1859,-0.1887,-0.1928,-0.1882,-0.1945,-0.1947,-0.1935,-0.2008,-0.2015,-0.2079,-0.1985,-0.1987,-0.1988,0,-0.1451,-0.1493,-0.1576,-0.1621,-0.1641,-0.1681,-0.173,-0.177,-0.1812,-0.1826,-0.186,-0.1869,-0.1923,-0.1899,-0.1974,-0.1943,-0.1969,-0.1987,-0.199,-0.1998,-0.1972,-0.202,-0.21,-0.211,-0.2003,-0.2001,-0.2,0,-0.1493,-0.1571,-0.1631,-0.1652,-0.1706,-0.1734,-0.1758,-0.1798,-0.1828,-0.1871,-0.1891,-0.194,-0.1967,-0.2004,-0.2027,-0.2007,-0.21,-0.2079,-0.2114,-0.2114,-0.2136,-0.2134,-0.2223,-0.2149,-0.2149,-0.2149,-0.2149,0,-0.1567,-0.1618,-0.165,-0.1687,-0.1745,-0.1764,-0.182,-0.1844,-0.1879,-0.1921,-0.1929,-0.1968,-0.1994,-0.2038,-0.2055,-0.2115,-0.2127,-0.214,-0.2145,-0.2141,-0.2139,-0.216,-0.2157,-0.2151,-0.2151,-0.215,-0.215,0,-0.1626,-0.1649,-0.1715,-0.1759,-0.1771,-0.1812,-0.1851,-0.1887,-0.1907,-0.1961,-0.1974,-0.2007,-0.2059,-0.2084,-0.2148,-0.2159,-0.2227,-0.2228,-0.2213,-0.2215,-0.225,-0.2247,-0.2356,-0.2372,-0.2286,-0.2287,-0.2288,0,-0.1672,-0.1711,-0.1759,-0.1788,-0.1812,-0.1857,-0.1887,-0.1907,-0.1938,-0.1988,-0.2019,-0.2069,-0.2112,-0.2193,-0.2224,-0.2272,-0.2275,-0.231,-0.2283,-0.2278,-0.2278,-0.2276,-0.228,-0.2316,-0.2317,-0.2317,-0.2318,0,-0.1752,-0.1761,-0.1804,-0.1851,-0.1886,-0.1924,-0.1962,-0.1984,-0.201,-0.2045,-0.2097,-0.2129,-0.2193,-0.2244,-0.2294,-0.232,-0.2324,-0.2326,-0.2337,-0.2334,-0.2325,-0.2332,-0.2228,-0.2324,-0.2323,-0.2323,-0.2322,-0.2322,-0.1808,-0.1843,-0.1882,-0.1929,-0.1959,-0.1993,-0.2029,-0.2053,-0.2096,-0.215,-0.2158,-0.2214,-0.2253,-0.2321,-0.2348,-0.2392,-0.2384,-0.24,-0.2404,-0.2408,-0.2411,-0.2315,-0.2401,-0.2401,-0.24,-0.24,-0.24,0,-0.189,-0.1914,-0.1957,-0.2009,-0.2046,-0.2044,-0.2084,-0.2116,-0.2164,-0.22,-0.2241,-0.23,-0.2349,-0.2382,-0.2431,-0.246,-0.2463,-0.2473,-0.2472,-0.2478,-0.2414,-0.24,-0.2469,-0.2469,-0.2469,-0.2469,-0.2469,-0.2469,-0.1937,-0.1996,-0.201,-0.2083,-0.2108,-0.2161,-0.2185,-0.2216,-0.2245,-0.2311,-0.2351,-0.2371,-0.2406,-0.2458,-0.2503,-0.2511,-0.253,-0.254,-0.2549,-0.2489,-0.2482,-0.2475,-0.2462,-0.2544,-0.2544,-0.2609,-0.2609,-0.261]},{"header":{"parameterUnit":"m.s-1","parameterCategory":1,"la1":30.2991,"la2":30.254,"lo1":-89.0895,"lo2":-89.0444,"dy":0.0017,"dx":0.0017,"nx":28,"ny":28,"refTime":"2025-01-06T09:00:00:Z","depth":0,"parameterNumber":3,"parameterNumberName":"V-component_of_WINDS"},"data":[0,0,0,0,0,0,0,0,0,0,0,0,0,0,0,0,0,0,0,0,0,0,0,0,0,0,0,0,0,0,0,0,0,0,0,0,0,0,0,0,0,0,0,0,0,0,0,0,0,0,0,0,0,0,0,0,0,0,-6.9851,-6.9853,0,-7.0027,-7.0029,-7.0031,-6.9956,-6.9952,-6.9948,-6.9944,-7.0118,-7.0126,-7.0135,0,0,0,0,0,0,0,0,0,0,0,0,0,-6.9445,-6.9453,-6.9851,-6.9853,-6.9855,-7.0026,-7.0029,-7.0031,-6.9957,-6.9952,-6.9947,-6.9942,-7.0115,-7.0125,-7.0136,0,0,0,0,0,0,0,0,0,0,0,0,0,-6.9621,-6.9455,-6.985,-6.9839,-6.984,-7.0026,-7.0029,-7.0032,-6.9958,-6.9952,-6.9945,-6.994,-7.0112,-7.0124,-7.0137,-7.0343,0,0,-7.0176,-7.0182,0,0,0,0,0,0,0,0,-6.9611,-6.9636,-6.9839,-6.984,-6.9841,-6.9963,-6.9949,-7.0136,-6.996,-6.9913,-6.9944,-6.9937,-7.0071,-7.0087,-7.0134,-7.0351,-7.0358,-7.0177,-7.0185,-7.0191,-7.0194,0,0,0,0,0,0,0,-6.9599,-6.9628,-6.992,-6.9841,-6.9843,-6.9823,-6.9841,-6.9984,-7.0025,-6.9917,-6.9912,-6.9934,-7.0071,-7.0121,-7.0137,-7.0361,-7.0177,-7.0188,-7.0196,-7.0201,-7.0754,-7.0761,0,0,0,0,0,0,-6.9587,-6.9618,-6.9914,-6.9925,-6.9708,-6.9836,-6.9856,-6.993,-7.0024,-7.0032,-6.9939,-6.993,-7.0103,-7.0122,-7.0143,-7.039,-7.0191,-7.0203,-7.021,-7.0747,-7.0756,-7.0763,0,0,0,0,0,0,-6.9579,-6.9615,-6.9907,-6.9771,-6.9806,-6.9849,-6.9934,-6.9937,-6.9988,-7.0041,-7.0047,-6.9984,-7.0098,-7.0125,-7.0294,-7.0395,-7.0208,-7.022,-7.0739,-7.075,-7.076,-7.0885,0,0,0,0,0,0,-6.9568,-6.9612,-6.9692,-6.9773,-6.9814,-7.0058,-6.994,-6.9945,-7.0011,-7.0,-7.0084,-7.0092,-7.0096,-7.0275,-7.0307,-7.0409,-7.023,-7.073,-7.0744,-7.0756,-7.0872,-7.0899,-7.0921,0,0,0,0,0,-6.9553,-6.9719,-6.9697,-6.9733,-6.9916,-7.0064,-7.0087,-7.0089,-7.0019,-7.0099,-7.0133,-7.0089,-7.0378,-7.0293,-7.0328,-7.0436,-7.0724,-7.074,-7.0755,-7.0861,-7.0893,-7.0921,0,0,0,0,0,0,-6.9648,-6.973,-6.9706,-6.9903,-6.9977,-7.0051,-7.0152,-7.0124,-7.0218,-7.0204,-7.02,-7.022,-7.0394,-7.0431,-7.0335,-7.0639,-7.054,-7.0564,-7.0609,-7.064,-7.0664,-7.0651,-7.0241,0,0,0,0,0,-6.9692,-6.9807,-6.9872,-7.004,-7.0079,-7.0109,-7.0174,-7.0169,-7.0245,-7.0276,-7.0321,-7.0395,-7.0502,-7.0573,-7.0674,-7.0877,-7.0893,-7.0968,-7.0992,-7.1012,-7.1032,-7.1141,-7.1175,-7.0815,-7.0815,-7.0814,0,0,-6.9784,-6.9843,-6.9915,-7.006,-7.0117,-7.0235,-7.0136,-7.0265,-7.0352,-7.0294,-7.0457,-7.0493,-7.0575,-7.0762,-7.0846,-7.0798,-7.1135,-7.1032,-7.1048,-7.1057,-7.1161,-7.1195,-7.1225,-7.0826,-7.0824,-7.0822,0,0,-7.0011,-7.0068,-7.0214,-7.0273,-7.0361,-7.0381,-7.0416,-7.0494,-7.0516,-7.068,-7.0639,-7.0741,-7.0926,-7.0986,-7.104,-7.129,-7.1253,-7.1323,-7.1451,-7.1557,-7.1585,-7.161,-7.1699,-7.1731,-7.1343,-7.1343,-7.1343,0,-7.0114,-7.0292,-7.0292,-7.0425,-7.0489,-7.0444,-7.0591,-7.0648,-7.0764,-7.0808,-7.0753,-7.0984,-7.1036,-7.1235,-7.1296,-7.1342,-7.138,-7.1313,-7.1581,-7.1607,-7.163,-7.1714,-7.1748,-7.1351,-7.135,-7.1349,-7.1348,0,-7.0413,-7.0537,-7.0644,-7.0759,-7.0835,-7.0974,-7.0994,-7.1071,-7.1059,-7.1083,-7.1249,-7.131,-7.1423,-7.1469,-7.1459,-7.1667,-7.1635,-7.1581,-7.1482,-7.1672,-7.1751,-7.1784,-7.1362,-7.1359,-7.1357,-7.1355,0,0,-7.0706,-7.082,-7.0859,-7.091,-7.1004,-7.1098,-7.1234,-7.1346,-7.1412,-7.1492,-7.1605,-7.1763,-7.1714,-7.1775,-7.1771,-7.1864,-7.2057,-7.1798,-7.18,-7.1844,-7.2289,-7.233,-7.2367,-7.2032,-7.2039,-7.2043,-7.2282,0,-7.0941,-7.1182,-7.1186,-7.1406,-7.152,-7.1478,-7.1596,-7.1665,-7.1691,-7.1789,-7.1816,-7.1928,-7.1855,-7.1892,-7.1982,-7.2014,-7.2146,-7.1997,-7.2136,-7.2141,-7.2118,-7.2408,-7.2452,-7.2674,-7.2313,-7.2318,-7.2322,0,-7.1247,-7.134,-7.1573,-7.1649,-7.1696,-7.1803,-7.1906,-7.2001,-7.2077,-7.2089,-7.2158,-7.2139,-7.2275,-7.2172,-7.2358,-7.2257,-7.2314,-7.2338,-7.2346,-7.236,-7.2243,-7.2429,-7.2745,-7.2779,-7.2371,-7.2367,-7.2364,0,-7.1438,-7.162,-7.1783,-7.1828,-7.1921,-7.1997,-7.2039,-7.2109,-7.2176,-7.2264,-7.2307,-7.241,-7.2466,-7.2545,-7.2553,-7.2477,-7.2741,-7.2638,-7.2754,-7.2754,-7.2811,-7.2808,-7.3141,-7.2848,-7.2847,-7.2847,-7.2846,0,-7.17,-7.1843,-7.187,-7.197,-7.2129,-7.2131,-7.2287,-7.2322,-7.2385,-7.2489,-7.2458,-7.2556,-7.2562,-7.2662,-7.2668,-7.2822,-7.2847,-7.2859,-7.2859,-7.2863,-7.2861,-7.29,-7.2885,-7.2856,-7.2854,-7.2852,-7.285,0,-7.1939,-7.1963,-7.2137,-7.2212,-7.2233,-7.2347,-7.2409,-7.2504,-7.2526,-7.2659,-7.269,-7.2725,-7.2841,-7.2857,-7.2992,-7.2996,-7.318,-7.3164,-7.3156,-7.3153,-7.3268,-7.3257,-7.3638,-7.3688,-7.3362,-7.3365,-7.3368,0,-7.2105,-7.2215,-7.2301,-7.237,-7.2417,-7.2528,-7.2596,-7.2601,-7.2673,-7.2768,-7.2851,-7.2964,-7.3055,-7.3242,-7.3278,-7.338,-7.3366,-7.3493,-7.3381,-7.3381,-7.3368,-7.3362,-7.3372,-7.3514,-7.3518,-7.3521,-7.3523,0,-7.2397,-7.2403,-7.2504,-7.261,-7.2693,-7.2776,-7.2853,-7.2911,-7.2925,-7.3008,-7.3127,-7.3198,-7.3336,-7.3449,-7.355,-7.359,-7.356,-7.3558,-7.359,-7.3594,-7.3585,-7.3591,-7.3214,-7.3549,-7.3547,-7.3545,-7.3543,-7.3542,-7.2605,-7.2701,-7.2777,-7.289,-7.2949,-7.3022,-7.3115,-7.3149,-7.325,-7.3364,-7.336,-7.3491,-7.3563,-7.3696,-7.3744,-7.3845,-7.3803,-7.3849,-7.3861,-7.3873,-7.3884,-7.3569,-7.3863,-7.3862,-7.3861,-7.3861,-7.386,0,-7.2895,-7.2942,-7.3046,-7.3157,-7.3246,-7.321,-7.3294,-7.337,-7.3486,-7.3557,-7.3647,-7.3783,-7.3892,-7.3936,-7.4042,-7.4114,-7.4103,-7.4142,-7.4137,-7.4146,-7.3916,-7.3877,-7.415,-7.415,-7.415,-7.4149,-7.4149,-7.4149,-7.3057,-7.3217,-7.3232,-7.342,-7.3464,-7.3594,-7.3645,-7.3712,-7.3768,-7.3922,-7.4013,-7.4042,-7.4101,-7.4211,-7.4308,-7.4318,-7.4358,-7.4404,-7.4408,-7.4192,-7.4163,-7.4135,-7.4099,-7.4413,-7.4413,-7.463,-7.4632,-7.4634]}]]